TimeCOT,TemperatureF,Dew PointF,Humidity,Sea Level PressureIn,VisibilityMPH,Wind Direction,Wind SpeedMPH,Gust SpeedMPH,PrecipitationIn,Events,Conditions,WindDirDegrees,DateUTC
12:00 AM,51.8,50.0,94,30.30,3.7,ENE,3.5,-,N/A,Fog,Patches of Fog,70,2012-12-08 05:00:00
1:00 AM,50,49,93,,2,NNE,4.5,,,Fog,Light Fog,30,2012-12-08 06:00:00
1:00 AM,50.0,50.0,100,30.28,3.7,NNE,3.5,-,N/A,Fog,Patches of Fog,30,2012-12-08 06:00:00
2:00 AM,51.8,50.0,94,30.25,6.2,NNE,3.5,-,N/A,,Mostly Cloudy,30,2012-12-08 07:00:00
3:00 AM,50.0,50.0,100,30.24,6.2,NNW,3.5,-,N/A,,Mostly Cloudy,330,2012-12-08 08:00:00
4:00 AM,49,48,94,,4,NNE,6.7,,,,Mist,30,2012-12-08 09:00:00
4:00 AM,50.0,48.2,94,30.24,6.2,NNE,5.8,-,N/A,,Scattered Clouds,30,2012-12-08 09:00:00
5:00 AM,50.0,48.2,94,30.27,6.2,NE,5.8,-,N/A,,Partly Cloudy,50,2012-12-08 10:00:00
5:30 AM,51.8,50.0,94,30.28,6.2,NE,5.8,-,N/A,,Partly Cloudy,50,2012-12-08 10:30:00
6:00 AM,51.8,50.0,94,30.29,6.2,ENE,6.9,-,N/A,,Partly Cloudy,60,2012-12-08 11:00:00
7:00 AM,53,50,86,,11,NNE,6.7,,,,Haze,30,2012-12-08 12:00:00
7:00 AM,53.6,50.0,88,30.32,6.2,NNE,6.9,-,N/A,,Partly Cloudy,30,2012-12-08 12:00:00
8:00 AM,57.2,50.0,77,30.32,6.2,Variable,2.3,-,N/A,,Scattered Clouds,0,2012-12-08 13:00:00
8:30 AM,59.0,50.0,72,30.33,6.2,ESE,13.8,-,N/A,,Scattered Clouds,110,2012-12-08 13:30:00
9:00 AM,62.6,46.4,55,30.34,6.2,East,13.8,-,N/A,,Scattered Clouds,90,2012-12-08 14:00:00
10:00 AM,65,46,38,,11,East,13.4,,,,Haze,100,2012-12-08 15:00:00
10:00 AM,64.4,46.4,52,30.34,6.2,East,13.8,-,N/A,,Scattered Clouds,100,2012-12-08 15:00:00
11:00 AM,66.2,44.6,46,30.31,6.2,East,13.8,27.6,N/A,,Scattered Clouds,80,2012-12-08 16:00:00
12:00 PM,68.0,44.6,43,30.29,6.2,East,18.4,-,N/A,,Scattered Clouds,90,2012-12-08 17:00:00
1:00 PM,68,44,30,,11,East,11.2,,,,Haze,90,2012-12-08 18:00:00
1:00 PM,68.0,42.8,40,30.27,6.2,East,11.5,-,N/A,,Scattered Clouds,90,2012-12-08 18:00:00
2:00 PM,66.2,44.6,46,30.25,6.2,ESE,12.7,-,N/A,,Scattered Clouds,110,2012-12-08 19:00:00
3:00 PM,68.0,41.0,37,30.24,6.2,Calm,Calm,-,N/A,,Scattered Clouds,0,2012-12-08 20:00:00
4:00 PM,66,43,32,,11,East,11.2,,,,Haze,90,2012-12-08 21:00:00
4:00 PM,66.2,42.8,43,30.23,6.2,East,11.5,-,N/A,,Scattered Clouds,90,2012-12-08 21:00:00
5:00 PM,64.4,44.6,49,30.25,6.2,East,11.5,-,N/A,,Scattered Clouds,100,2012-12-08 22:00:00
6:00 PM,62.6,44.6,52,30.27,6.2,East,9.2,-,N/A,,Scattered Clouds,100,2012-12-08 23:00:00
7:00 PM,58,47,56,,11,ESE,8.9,,,,Haze,120,2012-12-09 00:00:00
7:00 PM,57.2,46.4,67,30.30,6.2,ESE,9.2,-,N/A,,Scattered Clouds,120,2012-12-09 00:00:00
8:00 PM,59.0,46.4,63,30.02,6.2,East,4.6,-,N/A,,Scattered Clouds,90,2012-12-09 01:00:00
9:00 PM,53.6,48.2,82,30.35,6.2,ESE,4.6,-,N/A,,Partly Cloudy,110,2012-12-09 02:00:00
10:00 PM,53,48,77,,11,NE,2.2,,,,Haze,50,2012-12-09 03:00:00
10:00 PM,53.6,48.2,82,30.35,6.2,Variable,2.3,-,N/A,,Partly Cloudy,0,2012-12-09 03:00:00
11:00 PM,51.8,46.4,82,30.35,6.2,Variable,2.3,-,N/A,,Partly Cloudy,0,2012-12-09 04:00:00